SCP
0 0 0 0 0 0 -0 -0 -0 -0 0 0 0 0 0 0 0 0 0 0 0 0 0 0 0 0 0 0 0 0 0 0 0 0 0 0 0 0 0 0 0 0 0
0 0 0 0 0 0 -0 -0 -0 0 0 0 0 0 0 0 0 0 0 0 0 0 0 0 0 0 0 0 0 0 0 0 0 0 0 0 0 0 0 0 0 0 0
0 0 0 0 -0 -0 -0 0 0 0 0 0 0 0 0 0 0 0 0 0 0 0 0 0 0 0 0 0 0 0 0 0 0 0 0 0 0 0 0 0 0 0 0
0 0 0 0 0 0 0 0 0 0 0 0 0 0 0 0 0 0 0 0 0 0 0 0 0 0 0 0 0 0 0 0 0 0 0 0 0 0 0 0 0 0 0
0 0 0 0 0 0 0 0 0 0 0 0 0 0 0 0 0 0 0 0 0 0 0 0 0 0 0 0 0 0 0 0 0 0 0 0 0 0 0 0 0 0 0
0 0 0 0 0 0 0 0 -0 -0 0 0 0 0 0 0 0 0 0 0 0 0 0 0 0 0 0 0 0 0 0 -0 0 0 0 0 0 0 0 0 0 0 0
0 0 0 0 0 0 0 0 -0 -0 0 0 0 0 0 0 0 -0 0 0 0 0 0 0 0 0 0 0 0 0 0 0 0 0 0 0 0 0 0 0 0 0 0
0 0 0 0 0 0 0 0 0 0 0 0 0 0 0 0 -0 -0 0 0 0 0 0 0 0 0 -0 0 0 0 0 0 0 0 0 0 0 0 0 0 0 0 0
0 0 0 0 0 0 0 0 0 0 0 0 0 0 0 -0 -0 -0 0 0 0 0 0 0 0 0 0 0 0 0 0 0 0 0 0 0 0 0 0 0 0 0 0
0 0 0 0 0 0 0 0 0 0 0 0 0 0 0 0 -0 -0 -0 0 0 0 0 0 0 0 0 0 0 0 0 0 0 0 0 -0 0 0 0 0 0 0 0
0 0 0 0 0 0 0 0 0 0 0 0 0 0 0 0 -0 -0 -0 -0 0 0 0 0 0 0 0 0 0 0 0 0 0 0 0 0 0 0 0 0 0 0 0
0 0 0 0 0 0 0 0 0 0 0 0 0 0 0 0 0 -0 -0 -0 0 0 0 0 0 0 0 0 0 0 0 0 0 0 0 0 0 0 0 0 0 0 0
0 0 0 0 0 0 0 0 0 0 0 0 0 0 0 0 0 -0 -0 -0 0 0 0 0 0 0 0 0 0 0 -0 -0 0 0 0 0 0 0 0 0 0 0 0
0 0 0 0 0 0 -0 -0 0 0 0 0 0 0 0 0 0 0 0 0 0 0 0 0 0 0 0 0 0 0 0 -0 0 0 0 0 0 0 0 0 0 0 0
0 0 0 0 0 -0 -0 -0 -0 0 0 0 0 0 0 0 0 0 0 0 0 0 0 0 0 0 0 0 0 0 0 0 0 0 0 0 0 0 0 0 0 0 0
0 0 0 0 0 0 0 0 0 0 0 0 0 0 0 0 0 0 0 0 0 0 0 0 0 0 0 0 0 0 0 0 0 0 0 0 0 0 0 -0 0 0 0
0 0 0 0 0 0 0 0 0 0 0 0 0 0 0 0 0 0 0 0 0 0 0 0 0 0 0 0 0 0 0 0 0 0 -0 -0 -0 0 0 0 0 0 0
0 0 0 0 0 0 0 0 0 0 0 0 0 0 0 0 0 0 0 0 0 0 0 -0 -0 -0 0 0 0 0 0 0 0 0 0 -0 -0 0 0 0 0 0 0
0 0 0 0 0 0 0 0 0 0 0 0 0 0 0 0 0 0 0 0 0 0 0 0 0 0 0 0 0 0 0 0 0 0 0 0 0 0 0 0 0 0 0
0 0 0 0 0 0 0 0 0 0 0 0 0 0 0 0 0 0 0 0 0 0 0 0 0 0 0 0 0 0 0 0 0 0 0 0 0 0 0 0 0 0 0
0 0 0 0 0 0 0 0 0 0 0 0 0 0 0 0 0 0 0 0 0 0 0 0 0 0 0 0 0 0 0 0 0 0 0 0 0 0 0 0 0 0 0
0 0 0 0 0 0 0 0 0 0 0 0 0 0 0 0 0 0 0 0 0 0 0 0 0 0 0 0 0 0 0 0 0 0 0 0 0 0 0 0 0 0 0
0 0 0 0 0 0 0 0 0 0 0 0 0 0 0 0 0 0 0 0 0 0 0 0 0 0 0 0 0 0 0 0 0 0 0 0 0 0 0 0 0 0 0
-0 -0 0 0 0 0 0 0 0 0 0 0 0 0 0 0 0 0 0 0 0 0 0 0 0 0 0 0 0 0 0 0 0 0 0 0 0 0 0 0 0 0 0
0 0 0 0 0 0 0 0 0 0 0 0 0 0 0 0 0 0 0 0 0 0 0 0 0 0 0 0 0 0 0 0 0 0 0 0 0 0 0 0 0 0 0
0 0 0 0 0 0 0 0 0 0 0 0 0 0 0 0 0 0 0 0 0 0 0 0 0 0 0 0 0 0 0 0 0 0 0 0 0 0 0 0 0 0 0
Wind_Speed
5 5 5 5 5 5 5 5 5 5 5 5 6 6 7 7 7 6 7 7 7 7 6 6 5 5 4 4 3 4 4 4 7 3 2 2 3 3 2 1 1 1 1
4 4 5 4 5 5 5 5 5 6 6 6 7 7 7 8 7 7 7 8 8 8 7 7 6 5 6 4 4 5 4 4 7 7 3 2 2 2 2 1 1 1 1
4 4 5 5 5 5 5 6 6 7 7 7 8 8 7 7 7 7 7 7 8 7 7 7 6 7 7 5 5 5 5 5 5 6 4 2 1 1 2 0 1 0 2
4 5 5 4 5 5 5 6 6 7 7 7 8 8 7 7 7 7 7 7 8 8 8 7 6 6 6 6 6 6 6 6 6 5 4 3 2 1 2 1 0 1 1
4 4 4 4 5 6 6 6 6 7 8 7 8 8 8 7 7 6 7 7 7 8 8 8 8 9 9 6 6 5 6 5 5 5 4 2 2 2 1 0 1 1 1
4 3 3 4 5 5 5 6 6 6 7 7 8 8 8 7 10 11 8 7 7 7 7 6 7 9 10 11 10 8 7 6 5 4 3 3 1 1 1 1 1 1 1
4 4 4 4 5 5 6 6 6 5 6 7 6 7 7 8 12 11 11 7 7 7 6 6 6 7 8 7 9 11 8 7 7 6 5 3 2 2 2 2 1 1 2
4 4 4 4 5 5 5 5 4 4 5 5 5 6 6 8 11 10 10 8 7 7 6 6 6 7 6 6 7 8 7 5 4 4 4 3 2 2 2 2 2 1 1
4 4 4 4 4 4 4 4 3 3 4 4 4 5 6 7 10 10 8 6 6 7 6 6 6 6 8 9 8 7 6 5 5 5 4 3 3 3 3 3 3 3 2
3 3 4 4 4 4 3 3 2 3 3 3 4 4 5 5 8 9 7 4 5 4 4 6 8 7 8 8 6 5 5 3 3 3 4 4 3 2 2 2 3 2 1
4 4 4 3 3 3 2 2 3 3 3 3 4 4 4 5 7 8 7 4 3 3 3 3 4 7 8 7 5 3 1 1 2 3 3 3 3 2 2 0 2 3 3
4 4 3 2 2 3 3 2 2 3 3 2 2 3 3 4 5 7 8 7 5 4 2 2 3 5 6 6 3 3 4 4 3 3 2 2 2 2 2 2 2 3 4
4 3 2 2 2 3 3 2 1 1 1 1 1 1 2 3 4 7 9 8 7 3 1 3 4 5 5 4 4 4 4 3 2 2 1 1 2 3 2 2 3 2 2
4 3 2 3 3 3 2 2 2 2 2 2 2 1 0 2 2 3 3 3 5 4 3 5 6 6 4 3 4 3 2 1 1 1 1 2 2 2 2 1 2 2 3
3 2 2 3 3 3 2 2 2 1 2 3 3 3 3 1 1 0 1 2 2 2 3 3 4 4 4 3 3 2 2 2 1 0 1 1 2 2 2 2 1 1 1
3 2 2 2 2 2 2 2 3 1 1 2 4 5 2 3 3 1 2 2 2 3 3 2 2 2 2 1 1 2 1 1 0 0 0 1 1 1 2 2 1 1 1
4 3 2 2 2 2 2 2 1 2 2 1 2 4 4 4 3 1 2 3 3 1 1 1 1 1 1 1 1 1 1 1 1 0 0 1 1 1 1 2 2 2 2
3 4 3 3 3 3 3 3 3 2 2 2 2 4 5 5 4 3 2 3 2 2 0 1 2 2 2 2 2 2 2 1 1 1 1 1 1 1 1 2 2 2 3
3 2 2 2 2 3 3 3 3 3 3 3 2 3 5 5 4 4 1 1 1 2 2 2 3 3 2 2 2 2 2 2 2 1 1 2 1 1 2 2 3 4 3
2 3 3 2 2 2 2 2 3 3 4 3 4 4 2 1 2 3 2 2 3 3 3 3 3 3 3 3 2 2 2 2 2 2 2 2 2 2 3 3 3 3 3
2 2 3 2 2 2 2 3 3 3 4 4 5 6 7 4 4 4 4 4 4 4 4 4 4 3 3 3 2 3 3 3 3 3 3 3 2 2 3 3 4 4 4
3 2 3 3 3 3 3 3 3 4 4 5 4 4 8 5 4 4 5 5 5 5 5 4 4 3 4 4 4 4 3 3 4 4 3 3 3 3 3 3 3 3 4
3 3 3 3 3 4 4 3 3 3 4 4 4 4 4 5 5 6 6 6 5 5 4 4 4 4 4 4 4 5 5 5 5 5 4 4 4 3 3 4 5 5 5
4 4 4 4 4 4 4 4 4 4 4 4 4 5 5 5 6 7 6 5 5 5 4 5 5 7 8 6 5 5 6 6 6 5 7 6 5 4 4 4 5 6 6
4 4 4 4 4 4 5 5 5 5 5 5 5 5 5 5 6 6 6 5 6 6 7 6 5 6 9 10 8 7 8 10 9 6 5 5 6 6 6 6 6 6 7
5 5 5 4 4 5 5 5 5 5 5 5 5 5 5 6 6 6 6 5 5 6 6 6 8 9 10 9 10 11 10 10 10 10 6 5 6 7 7 6 8 7 8
Wind_Direction
55 57 56 48 45 46 48 45 44 39 37 41 39 40 40 37 34 43 47 47 53 51 50 61 65 70 74 69 78 86 92 105 116 104 94 111 115 127 120 111 130 137 177
62 63 59 51 47 46 44 43 49 50 49 50 48 46 45 41 37 44 49 49 52 53 51 59 60 71 71 69 76 81 89 98 121 122 113 107 119 143 136 156 198 199 207
69 64 56 48 49 49 47 47 52 54 53 51 50 46 40 37 39 44 51 52 54 53 52 60 61 71 70 73 80 85 91 95 97 116 113 98 90 112 109 145 187 273 231
78 68 59 50 51 54 54 53 53 57 58 53 51 45 40 37 38 44 53 53 54 51 50 54 57 67 77 83 85 87 95 95 96 103 103 91 81 80 94 98 4 304 265
93 76 63 59 60 60 58 57 58 60 62 57 52 43 36 38 36 47 56 60 57 54 49 49 56 67 73 82 98 97 99 98 100 101 98 83 69 79 116 192 148 322 305
103 93 77 70 67 66 65 64 64 60 58 57 52 48 41 35 40 53 62 58 55 55 51 45 52 53 62 71 84 94 107 116 115 108 102 106 105 128 144 120 109 83 304
105 100 90 83 78 72 77 69 65 61 62 58 49 48 42 30 42 54 62 65 60 55 53 50 55 50 52 63 66 66 70 95 120 129 125 141 153 180 137 103 128 161 226
108 103 96 91 86 79 74 70 66 63 63 58 49 46 45 30 41 58 66 64 61 53 52 56 60 47 51 71 74 67 57 52 82 103 130 150 159 165 152 155 170 140 337
115 115 110 106 97 88 82 72 66 69 61 54 50 49 47 26 37 61 72 66 62 48 42 46 57 56 56 75 77 73 60 37 54 78 99 115 128 134 135 92 67 68 21
130 126 115 113 107 100 94 79 70 81 76 69 53 42 46 35 39 62 74 74 67 48 35 32 43 60 61 70 76 76 64 23 22 30 34 26 31 28 75 128 138 123 124
133 116 113 118 122 115 91 77 88 85 73 61 50 30 30 30 37 55 71 80 88 64 42 22 13 42 55 61 74 80 74 42 42 48 34 18 8 358 346 209 175 159 164
121 115 116 125 133 110 99 83 80 90 89 70 46 18 7 11 29 45 63 74 91 81 44 358 349 19 32 38 48 40 53 65 57 48 36 9 349 325 307 301 251 219 210
117 119 120 108 96 100 108 104 79 84 110 126 113 50 350 358 12 37 53 61 67 69 7 349 358 8 14 15 17 32 46 58 57 53 17 301 280 280 302 326 331 322 299
125 130 124 107 89 73 76 99 111 113 119 127 143 149 52 7 4 8 20 27 33 30 7 355 5 17 24 4 1 18 38 97 136 160 261 291 314 336 342 342 340 345 350
136 137 118 113 115 96 75 70 111 170 191 166 172 168 155 171 261 156 89 40 18 357 359 10 13 9 7 3 360 359 15 39 51 8 350 341 343 347 328 330 354 13 358
143 150 144 139 136 130 116 49 21 62 72 125 161 162 176 191 190 143 47 21 357 12 51 21 352 341 326 320 332 339 343 346 315 112 26 342 333 334 331 336 352 353 304
165 178 177 174 170 171 170 164 201 334 352 27 171 175 184 196 210 266 342 346 340 37 58 335 305 285 269 249 225 213 253 266 242 141 47 307 305 317 332 326 323 323 307
174 185 184 195 199 198 198 200 194 198 247 289 279 242 234 236 250 274 328 13 357 17 269 257 258 247 230 222 216 217 240 265 270 263 275 287 292 299 310 305 299 290 290
171 185 190 198 206 207 209 212 211 212 221 241 270 278 253 254 272 278 267 168 262 286 277 256 243 236 228 224 225 225 225 233 240 236 256 271 272 271 282 286 289 292 290
197 208 197 204 224 236 226 219 217 218 221 227 233 238 236 198 268 275 248 229 236 252 252 245 245 236 224 222 223 219 226 238 243 241 244 251 255 247 259 273 279 282 278
213 239 235 231 233 233 231 232 226 216 217 223 233 232 203 200 230 246 250 241 232 234 236 234 240 241 228 218 213 213 215 230 233 229 234 242 246 250 259 262 271 275 278
206 226 232 234 244 248 247 240 233 222 219 225 236 244 221 214 230 239 244 244 238 230 224 216 222 225 215 208 203 203 211 223 227 222 227 235 237 246 257 266 275 278 279
211 226 240 244 245 254 259 253 239 230 230 232 230 229 217 218 230 234 238 240 237 235 229 216 217 231 233 222 209 201 207 220 222 215 216 227 236 243 248 255 265 274 278
214 226 233 241 243 242 246 250 245 240 238 235 230 227 225 223 227 232 233 235 235 236 231 222 221 227 229 227 225 219 219 223 221 219 216 220 230 239 243 251 259 263 268
220 228 233 239 240 239 242 244 245 244 243 240 234 231 229 226 228 233 234 233 232 235 237 232 230 232 234 232 231 232 232 231 229 223 219 221 234 240 245 251 258 265 267
229 234 236 239 240 238 237 240 244 242 241 242 237 231 228 226 228 231 232 231 233 236 240 238 236 236 238 237 238 238 237 237 237 233 223 226 237 247 248 254 261 264 270